Wind_Speed
26 26 24 21 17 14 11 10 8 5 4 4 6 6 6 6 5 5 4 2 2 1 1 1 2 3 4 5 6 7 8 8 7 6 5 5 5 5 5 6 6 6 5 5 4 5 6 7 8
27 27 25 23 20 15 12 13 10 7 4 4 4 4 3 2 2 2 1 2 2 2 3 2 2 1 1 2 4 5 7 7 6 5 5 5 5 5 5 5 5 5 5 5 5 6 6 8 9
27 27 26 26 24 19 16 16 12 7 4 4 3 1 1 3 5 5 4 4 4 4 4 4 4 3 1 0 2 3 4 5 5 5 5 5 5 5 5 5 5 5 5 5 5 6 7 8 9
25 26 26 26 24 21 20 18 14 8 5 3 2 2 5 7 8 8 7 7 6 6 6 7 6 5 3 2 0 1 3 3 3 4 4 4 5 5 5 6 6 6 6 6 6 7 8 9 9
23 23 24 25 24 23 22 19 14 9 6 5 4 5 8 10 10 10 10 10 10 10 10 9 8 7 6 5 3 2 1 2 3 3 4 5 5 6 7 7 8 7 7 7 7 8 9 10 10
20 20 21 22 24 25 23 20 15 11 8 7 7 8 10 12 12 12 12 12 13 13 13 12 11 10 8 6 5 4 2 2 2 4 4 5 6 7 8 9 9 9 8 8 8 9 10 11 12
17 17 18 23 27 27 24 20 16 13 11 10 9 11 12 13 13 12 12 12 13 13 13 12 12 11 10 9 7 5 4 3 3 4 5 7 8 8 9 9 10 10 10 10 10 10 10 11 12
14 15 17 23 28 28 25 20 17 15 13 12 12 12 12 13 12 11 10 10 10 10 11 11 11 11 11 9 8 7 6 5 5 5 7 7 8 9 10 10 10 10 10 11 10 10 10 10 10
13 15 17 24 29 28 24 21 19 17 15 14 14 14 13 12 11 9 7 7 7 7 8 8 9 9 9 9 8 8 7 6 6 6 7 8 9 10 10 10 10 10 10 9 9 9 9 9 9
13 14 19 26 29 29 25 22 20 18 16 15 15 14 13 11 9 7 5 3 3 5 6 8 9 9 9 9 9 8 8 7 7 7 8 8 9 10 10 10 10 10 10 10 9 9 9 8 8
13 16 22 25 27 26 24 22 21 19 16 15 15 14 12 10 8 6 3 1 3 5 7 9 10 11 11 10 10 10 9 9 9 9 9 9 10 10 11 12 11 11 11 10 10 10 9 9 9
16 18 22 24 25 25 24 22 21 20 18 17 16 15 13 11 8 6 3 2 3 6 8 10 12 12 13 13 13 12 12 11 12 12 12 12 12 12 13 13 13 13 13 12 12 12 11 11 11
19 21 23 23 24 24 23 22 21 21 20 18 16 15 13 11 9 8 6 5 5 7 10 12 13 14 14 15 15 15 14 14 15 15 15 15 16 15 15 15 16 16 16 15 15 15 15 15 15
22 23 23 23 23 23 24 22 21 21 20 19 16 14 13 12 11 10 8 7 7 9 11 13 15 15 16 16 17 17 17 17 18 18 19 19 19 19 19 19 19 19 20 19 20 20 20 20 20
24 24 24 24 24 24 23 21 22 21 19 18 16 15 14 14 13 12 11 11 11 12 13 15 16 17 17 18 18 19 20 21 21 22 22 23 23 23 24 24 24 24 25 25 25 25 25 25 25
26 26 27 27 26 25 23 22 23 21 20 19 18 16 15 15 14 14 14 14 15 16 16 17 18 19 19 20 20 21 23 24 25 26 27 27 28 29 30 30 30 31 31 30 30 29 29 29 29
28 29 31 31 29 27 26 25 25 22 21 21 20 19 18 17 16 16 17 18 19 20 20 21 21 21 22 23 23 24 26 28 30 31 32 32 33 34 35 36 36 36 35 35 34 32 31 31 31
31 32 34 35 33 30 29 29 27 24 23 23 23 22 21 19 19 20 21 22 23 24 24 24 24 24 25 26 27 29 31 33 35 35 36 36 37 38 39 39 39 39 38 37 35 33 32 32 31
34 35 37 40 36 34 33 32 31 29 27 27 26 25 24 23 24 24 25 25 26 27 28 28 27 27 28 29 31 34 36 38 39 40 40 39 38 38 38 38 39 39 38 37 36 33 31 30 29
35 36 38 41 39 39 39 37 35 33 32 31 30 30 29 28 28 28 28 28 28 29 30 30 30 30 32 33 36 37 40 42 43 43 42 40 37 36 36 35 33 33 34 34 32 30 28 27 26
35 36 38 41 42 42 42 40 40 40 38 36 35 34 34 33 32 32 31 30 29 30 31 32 32 33 35 37 38 40 43 45 45 44 41 39 37 33 31 30 30 29 28 28 27 26 25 26 27
33 35 37 40 41 42 45 42 39 43 42 41 40 39 38 37 36 35 34 32 30 31 31 32 34 36 37 39 40 42 45 48 48 45 39 36 32 29 29 28 28 27 27 26 25 23 25 27 29
32 33 35 38 41 43 45 43 38 44 43 44 45 44 43 42 40 38 35 33 31 31 32 33 35 37 39 40 42 44 46 47 45 43 41 37 34 29 26 26 26 26 26 26 26 27 29 32 34
32 33 34 36 39 42 42 42 37 43 43 42 44 44 43 41 39 37 34 33 32 32 33 34 36 38 39 41 43 42 43 44 42 42 38 37 33 29 26 26 27 27 28 29 29 31 35 37 39
32 32 32 33 36 35 37 38 34 42 39 38 39 39 38 37 35 34 33 32 32 32 33 34 36 38 39 40 40 40 41 40 40 39 38 37 34 32 31 31 30 30 32 33 34 36 40 43 45
30 31 31 26 24 25 33 32 36 36 34 33 33 32 31 30 29 29 28 28 28 29 30 31 33 35 37 38 38 39 39 39 39 39 39 37 36 35 33 33 35 35 36 38 40 42 45 47 50
30 30 30 30 27 24 22 30 34 32 30 29 28 27 26 26 25 24 24 25 26 27 29 31 33 34 36 37 38 38 38 38 40 40 39 39 38 37 36 37 38 39 41 43 44 46 49 52 55
28 28 30 31 27 24 23 26 27 29 27 26 26 26 25 24 23 23 23 24 26 28 29 31 33 34 35 36 37 38 39 39 40 41 40 40 39 39 39 40 42 43 45 46 49 52 54 56 58
26 28 30 29 27 24 20 21 26 26 25 25 25 24 24 24 24 25 25 26 28 29 31 32 34 35 36 37 38 39 40 41 41 42 42 42 42 43 43 44 45 47 49 51 53 55 57 58 59
25 26 28 29 28 28 24 24 25 24 24 23 24 24 24 24 25 26 28 29 30 32 33 35 36 37 39 40 41 42 43 44 44 45 45 46 46 47 47 48 49 51 53 54 56 57 58 59 60
Wind_Direction
211 212 211 210 207 210 217 220 224 242 278 288 288 282 272 267 268 265 267 292 311 310 282 249 242 241 241 245 252 257 262 265 269 270 272 275 277 273 268 265 259 255 253 251 248 252 258 265 270
213 213 213 210 209 206 219 220 224 237 268 295 297 282 257 225 205 162 131 81 66 73 79 76 70 70 219 235 245 251 255 257 261 266 273 282 284 280 275 268 259 252 248 246 247 253 260 265 269
212 214 213 210 212 209 213 216 221 230 252 283 291 280 167 126 115 108 102 88 81 79 69 60 55 54 59 213 243 248 251 252 256 261 267 273 275 273 268 261 253 251 249 247 249 255 259 262 265
213 215 214 212 211 212 215 216 217 224 237 242 218 131 111 107 100 99 95 88 81 74 62 54 51 52 57 60 30 264 260 255 254 255 257 257 256 255 254 252 250 253 254 253 251 252 255 259 262
214 215 214 210 207 212 213 215 214 213 216 204 174 135 114 105 98 97 94 90 81 74 67 61 58 56 55 55 50 27 325 271 254 251 249 246 246 247 248 250 253 256 256 253 252 252 255 260 265
216 216 212 204 202 210 211 209 203 198 193 187 166 140 122 111 102 97 95 90 85 78 71 65 61 56 52 49 45 34 14 323 273 258 251 248 247 247 251 254 256 260 261 260 260 262 265 268 273
216 217 208 200 201 207 207 203 198 193 185 181 169 147 133 119 108 102 98 92 87 82 74 67 62 58 52 46 40 28 9 342 303 275 261 256 254 255 258 260 262 264 267 270 272 275 276 277 281
220 220 209 202 203 207 208 198 193 188 185 183 173 156 143 129 118 109 102 93 85 78 72 66 59 55 50 42 32 21 5 344 318 293 276 270 266 266 266 267 269 271 274 278 282 283 284 286 289
224 223 211 203 204 208 207 196 189 187 187 183 178 168 158 144 132 120 105 91 75 64 56 51 44 41 38 33 24 12 359 345 325 305 291 282 277 276 275 275 276 278 281 283 283 284 286 288 292
228 223 210 207 207 208 205 194 188 188 190 190 188 181 170 159 148 132 111 81 53 37 28 20 14 12 13 13 10 3 354 343 331 314 300 290 284 281 280 280 282 283 282 281 281 281 281 283 288
229 220 215 212 211 209 203 196 191 191 193 195 193 190 186 176 166 155 142 40 4 356 350 349 347 347 348 350 350 348 346 339 329 318 307 298 290 285 282 279 280 279 277 276 276 278 279 282 287
226 222 219 215 212 210 206 201 197 197 199 203 203 205 204 200 196 194 204 262 314 326 328 329 329 330 333 335 336 338 336 332 325 317 309 300 292 285 281 278 277 276 274 272 271 271 274 278 282
222 222 220 218 214 212 210 207 204 204 209 215 217 220 223 223 227 227 232 254 287 307 314 318 320 321 324 326 329 329 329 325 319 312 305 298 291 285 279 274 273 272 271 268 267 268 269 271 274
222 223 223 221 217 215 215 212 210 211 216 223 225 228 230 237 242 249 253 261 277 293 304 309 312 315 319 322 324 327 326 323 317 308 301 294 288 283 277 272 269 267 267 267 268 268 269 270 271
224 225 226 225 221 219 220 219 219 218 221 224 228 234 240 247 252 259 264 271 279 287 294 301 306 310 316 319 321 324 322 318 313 306 298 290 284 278 273 270 267 266 266 267 267 268 268 269 270
223 225 226 225 224 223 221 224 228 226 227 229 230 237 246 254 259 264 270 276 280 284 288 292 298 303 308 312 315 317 317 314 309 303 295 287 281 275 271 267 265 266 265 266 266 266 267 269 270
220 222 224 227 227 227 225 225 233 231 234 236 237 241 248 256 265 272 274 277 279 282 285 287 290 295 300 304 307 310 310 309 304 298 293 285 278 274 271 266 264 263 263 264 266 268 270 272 273
219 220 223 227 230 229 230 232 238 237 239 241 244 247 252 258 266 270 274 277 280 282 283 284 286 289 292 296 299 301 302 301 299 295 290 283 277 275 274 268 264 263 263 265 265 268 271 273 273
220 219 221 226 233 233 236 237 240 242 243 245 248 252 256 260 265 268 272 276 278 280 282 281 281 284 287 290 292 293 295 295 291 287 287 285 281 278 275 273 270 266 265 268 269 270 272 274 276
223 221 222 227 233 235 239 241 243 246 247 249 251 255 258 262 266 269 272 274 275 276 277 277 278 280 283 284 287 290 290 289 286 286 287 285 283 280 276 273 273 270 270 271 271 273 275 280 286
226 225 224 226 232 236 242 246 249 250 251 253 255 257 260 263 266 270 273 274 273 273 274 274 276 279 281 284 287 291 290 290 290 292 294 292 288 281 278 273 274 278 278 276 274 279 284 289 292
229 228 227 228 231 234 239 239 247 249 252 256 259 261 263 266 269 272 272 271 270 270 271 273 275 277 280 284 287 289 291 292 296 296 299 305 302 293 282 278 280 282 281 280 282 287 292 295 298
229 229 229 230 232 234 241 240 241 255 254 255 259 262 265 268 270 271 270 268 267 267 269 270 272 274 278 282 285 288 291 293 297 302 308 312 311 304 294 286 286 284 283 285 291 293 296 299 299
228 229 230 232 234 237 241 243 241 250 255 255 257 260 263 265 267 267 266 265 265 266 266 267 269 272 275 279 282 286 290 293 299 305 308 312 314 310 303 296 289 286 287 290 293 295 296 297 297
229 229 230 233 236 240 242 243 240 248 252 254 255 257 260 263 265 266 266 265 265 264 264 265 267 271 274 277 279 282 287 291 298 303 306 310 312 312 306 303 300 294 292 292 293 294 295 295 295
231 230 228 229 239 242 246 243 243 248 250 250 252 255 258 261 263 264 264 264 262 261 261 263 266 269 272 276 278 281 286 291 295 301 305 307 309 308 304 302 299 294 293 293 293 293 294 294 294
231 230 229 231 229 228 239 245 245 245 246 248 252 256 258 260 261 260 259 258 258 259 260 263 266 269 272 275 279 282 286 290 295 300 303 305 305 304 299 298 296 293 293 292 291 292 293 293 293
233 231 230 230 231 236 240 252 253 246 246 250 254 257 260 261 260 259 258 257 258 259 261 263 265 268 271 275 279 284 288 292 295 299 301 302 302 300 298 297 296 294 292 291 291 292 292 292 293
237 234 233 232 231 232 236 245 251 252 250 251 254 257 258 259 258 257 259 260 260 261 262 263 265 268 271 275 280 284 289 293 296 298 299 300 300 298 297 296 295 293 292 291 291 291 292 293 293
234 233 233 232 235 238 233 244 249 251 251 251 253 255 258 259 259 260 261 263 264 264 265 265 267 270 273 277 281 286 290 293 295 297 297 298 298 297 296 295 294 293 292 292 291 292 292 293 294
Height
5889 5891 5894 5898 5901 5904 5905 5906 5906 5906 5905 5904 5904 5903 5902 5901 5901 5903 5901 5899 5898 5898 5898 5897 5898 5898 5898 5898 5898 5899 5899 5899 5899 5899 5899 5899 5899 5899 5899 5899 5900 5900 5901 5901 5902 5902 5902 5901 5901
5887 5889 5892 5896 5899 5902 5905 5904 5904 5904 5903 5903 5902 5901 5900 5899 5899 5899 5898 5898 5897 5897 5897 5896 5896 5896 5896 5896 5896 5897 5897 5897 5897 5897 5897 5897 5897 5897 5897 5897 5898 5898 5899 5899 5900 5900 5899 5899 5899
5883 5886 5890 5893 5896 5898 5901 5901 5902 5902 5902 5902 5901 5900 5899 5899 5898 5898 5898 5897 5897 5897 5896 5895 5894 5894 5894 5894 5895 5895 5895 5895 5895 5895 5895 5895 5895 5895 5895 5895 5896 5896 5897 5897 5897 5897 5897 5897 5896
5880 5883 5887 5890 5892 5895 5896 5898 5899 5900 5901 5900 5900 5899 5898 5898 5897 5897 5897 5897 5896 5896 5895 5894 5894 5893 5893 5893 5893 5893 5893 5893 5893 5893 5893 5893 5893 5893 5893 5893 5894 5894 5895 5895 5895 5895 5895 5894 5894
5877 5880 5883 5886 5889 5891 5893 5895 5897 5899 5899 5899 5899 5899 5898 5897 5897 5897 5896 5896 5896 5895 5895 5894 5894 5893 5892 5892 5891 5892 5892 5892 5891 5891 5891 5891 5891 5891 5891 5891 5891 5892 5892 5892 5892 5893 5892 5892 5892
5873 5876 5879 5882 5885 5887 5889 5892 5895 5897 5898 5898 5898 5898 5898 5897 5897 5897 5896 5896 5896 5895 5895 5894 5893 5893 5892 5891 5891 5891 5891 5890 5890 5890 5890 5889 5889 5889 5889 5889 5889 5890 5890 5890 5890 5890 5890 5890 5889
5870 5873 5875 5878 5880 5883 5886 5889 5893 5895 5896 5897 5898 5898 5897 5897 5896 5897 5897 5896 5896 5895 5895 5895 5894 5893 5892 5891 5891 5891 5890 5890 5889 5889 5888 5888 5888 5887 5887 5887 5887 5888 5888 5888 5888 5888 5888 5887 5887
5867 5870 5871 5874 5876 5879 5883 5887 5890 5893 5895 5896 5897 5897 5897 5897 5896 5897 5897 5897 5896 5896 5896 5895 5894 5893 5892 5892 5891 5891 5890 5889 5888 5888 5887 5887 5886 5885 5885 5885 5885 5885 5885 5885 5885 5885 5885 5884 5884
5863 5867 5868 5870 5873 5876 5880 5884 5888 5891 5893 5895 5896 5896 5896 5896 5896 5897 5897 5897 5896 5896 5895 5895 5894 5893 5892 5891 5891 5890 5889 5888 5887 5887 5886 5885 5885 5884 5883 5883 5883 5883 5883 5883 5883 5882 5882 5881 5881
5861 5863 5865 5866 5869 5872 5877 5882 5886 5889 5892 5893 5895 5895 5895 5895 5896 5896 5896 5896 5896 5895 5895 5894 5894 5893 5891 5890 5889 5889 5888 5887 5886 5885 5884 5884 5883 5882 5881 5881 5881 5881 5880 5880 5879 5879 5879 5878 5878
5858 5859 5860 5862 5865 5869 5874 5880 5884 5888 5890 5892 5893 5894 5895 5895 5895 5895 5895 5895 5895 5894 5894 5894 5893 5892 5891 5890 5888 5887 5886 5885 5884 5884 5883 5882 5881 5880 5879 5878 5878 5877 5877 5877 5876 5876 5875 5875 5875
5855 5856 5857 5859 5863 5867 5872 5877 5882 5885 5888 5889 5891 5892 5893 5894 5894 5894 5894 5894 5894 5893 5893 5892 5891 5891 5889 5888 5887 5886 5885 5883 5883 5882 5880 5879 5878 5877 5876 5876 5875 5874 5874 5874 5873 5873 5872 5872 5871
5851 5852 5855 5857 5861 5865 5870 5875 5879 5883 5885 5887 5889 5891 5892 5892 5893 5892 5892 5892 5892 5892 5891 5891 5890 5889 5888 5886 5885 5884 5882 5881 5880 5879 5878 5876 5875 5874 5873 5872 5871 5871 5870 5870 5870 5869 5869 5868 5868
5848 5850 5852 5855 5859 5863 5868 5872 5877 5880 5883 5885 5887 5889 5890 5890 5891 5891 5891 5891 5891 5890 5890 5889 5888 5886 5885 5884 5883 5881 5880 5878 5877 5875 5874 5872 5871 5870 5869 5868 5867 5866 5866 5866 5866 5865 5865 5864 5863
5845 5848 5850 5853 5857 5861 5866 5871 5874 5877 5880 5883 5885 5886 5887 5888 5889 5889 5889 5889 5889 5888 5887 5886 5885 5884 5883 5881 5880 5878 5876 5875 5873 5871 5869 5868 5866 5865 5863 5863 5862 5861 5860 5860 5860 5859 5859 5858 5857
5842 5845 5848 5851 5854 5858 5865 5869 5870 5873 5877 5880 5882 5883 5885 5886 5886 5887 5887 5887 5886 5886 5885 5884 5882 5881 5880 5878 5876 5875 5873 5871 5869 5866 5864 5862 5860 5859 5857 5856 5855 5854 5853 5853 5852 5852 5851 5851 5850
5838 5842 5845 5848 5851 5855 5860 5865 5865 5870 5873 5876 5878 5880 5881 5883 5884 5884 5884 5884 5883 5882 5882 5881 5879 5878 5876 5874 5872 5871 5869 5866 5863 5861 5858 5856 5854 5851 5849 5848 5846 5845 5845 5844 5844 5844 5844 5843 5842
5834 5838 5841 5844 5847 5851 5855 5859 5861 5865 5868 5871 5874 5876 5877 5879 5880 5880 5880 5880 5879 5879 5878 5877 5875 5874 5872 5869 5868 5865 5863 5860 5857 5854 5851 5848 5846 5843 5841 5839 5837 5836 5836 5836 5836 5836 5836 5835 5834
5828 5832 5836 5839 5841 5847 5850 5853 5856 5860 5863 5866 5868 5871 5873 5874 5875 5875 5876 5876 5875 5875 5874 5873 5871 5869 5867 5865 5863 5860 5857 5854 5850 5846 5843 5840 5838 5835 5832 5830 5829 5827 5828 5828 5828 5828 5827 5827 5826
5823 5827 5831 5834 5837 5842 5844 5848 5851 5854 5857 5860 5862 5865 5867 5868 5869 5870 5871 5871 5871 5870 5869 5868 5866 5864 5862 5859 5856 5854 5849 5846 5842 5838 5836 5833 5830 5827 5825 5823 5822 5820 5820 5821 5820 5821 5820 5820 5819
5817 5822 5826 5829 5831 5835 5839 5843 5846 5848 5851 5854 5856 5858 5860 5862 5863 5864 5865 5865 5865 5864 5864 5863 5861 5859 5857 5854 5851 5847 5843 5839 5835 5832 5829 5826 5823 5821 5819 5817 5815 5814 5814 5814 5813 5813 5813 5813 5812
5811 5816 5820 5823 5827 5830 5832 5839 5841 5840 5843 5846 5848 5850 5852 5854 5855 5857 5858 5858 5858 5858 5858 5857 5855 5853 5851 5848 5845 5842 5838 5833 5829 5825 5822 5820 5818 5815 5813 5812 5810 5809 5808 5808 5807 5806 5805 5805 5803
5805 5809 5813 5817 5820 5823 5825 5831 5837 5831 5835 5838 5840 5841 5843 5845 5847 5848 5850 5850 5851 5851 5851 5850 5849 5847 5845 5842 5839 5836 5833 5828 5825 5821 5817 5816 5813 5810 5807 5806 5805 5804 5802 5801 5800 5799 5798 5796 5794
5798 5803 5807 5810 5814 5817 5820 5824 5829 5826 5827 5830 5831 5833 5835 5837 5839 5840 5841 5842 5843 5843 5843 5843 5842 5840 5838 5835 5832 5829 5826 5823 5820 5816 5813 5811 5808 5805 5803 5801 5799 5798 5796 5795 5793 5791 5789 5787 5784
5793 5798 5802 5806 5808 5812 5813 5816 5821 5817 5821 5822 5824 5825 5827 5828 5830 5832 5833 5834 5835 5835 5835 5834 5833 5832 5830 5827 5824 5821 5819 5817 5814 5810 5807 5804 5802 5800 5797 5795 5793 5791 5789 5787 5785 5782 5780 5776 5773
5787 5792 5798 5802 5806 5808 5806 5810 5810 5812 5814 5815 5817 5818 5820 5821 5822 5823 5824 5825 5826 5826 5826 5826 5825 5823 5822 5819 5817 5814 5812 5809 5806 5803 5800 5797 5795 5792 5790 5787 5785 5783 5781 5778 5775 5772 5768 5764 5760
5781 5785 5790 5794 5797 5801 5803 5801 5802 5804 5807 5809 5811 5812 5813 5814 5815 5816 5817 5818 5818 5818 5818 5818 5817 5815 5813 5811 5809 5806 5804 5801 5798 5795 5792 5789 5787 5784 5782 5779 5777 5774 5771 5767 5764 5760 5756 5752 5747
5776 5779 5783 5786 5790 5794 5798 5797 5798 5799 5801 5803 5804 5805 5807 5807 5808 5809 5810 5810 5811 5811 5811 5810 5808 5807 5805 5803 5801 5798 5795 5792 5789 5786 5783 5780 5777 5774 5772 5769 5766 5763 5759 5755 5751 5747 5743 5738 5733
5771 5774 5776 5781 5785 5789 5794 5797 5791 5792 5795 5797 5798 5799 5800 5801 5802 5802 5803 5803 5803 5803 5802 5801 5800 5799 5797 5794 5792 5789 5786 5783 5780 5777 5773 5770 5767 5764 5761 5758 5754 5750 5746 5742 5738 5734 5729 5724 5718
5766 5769 5772 5776 5778 5780 5785 5789 5785 5786 5788 5790 5792 5793 5794 5794 5794 5795 5795 5795 5795 5794 5793 5792 5791 5789 5787 5785 5782 5779 5776 5773 5770 5766 5763 5760 5756 5753 5749 5745 5741 5737 5733 5728 5724 5719 5714 5709 5703